Date String (YYYY-MM-DD hh:mm:ss) UTC,Instrument flags,absolute air pressure of the measurement (hPa),sample flow rate (lpm),inlet stack bypass flow (lpm),air temperature of the measurement (°C),ambient temperature measured by the external sensor (°C),aerosol sample conditioner tube jacket temperature (°C),OPC LED temperature (°C),internal box temperature (°C),relative humidity of the measurement (%),span deviation,mass concentration of particles derived from Lorenz-Mie calculation of OPC scattering (μg/m³),mass concentration of particles derived from Lorenz-Mie calculation of OPC scattering (μg/m³),mass concentration of particles derived from Lorenz-Mie calculation of OPC scattering (μg/m³)
DateTimeUTC,F1_M11,P_M11,Q1_M11,Q2_M11,T1_M11,T2_M11,T3_M11,T4_M11,T5_M11,U1_M11,ZSPAN_M11,X0_M11,X2_M11,X1_M11
2024-05-17 00:00:00,SystemResetWarning,0822.8,5.00,000.00,024.4,024.0,000.0,032.3,026.3,021.3,0000.0,0013.97,0003.27,0002.34
2024-05-17 00:01:00,SystemResetWarning,0822.7,4.99,000.00,024.3,022.6,000.0,032.4,025.4,022.5,0000.0,0013.38,0003.25,0002.33
2024-05-17 00:02:00,SystemResetWarning,0822.7,5.01,000.00,023.9,021.0,000.0,032.4,024.6,022.3,0000.0,0010.97,0003.17,0002.33
2024-05-17 00:03:00,SystemResetWarning,0822.7,5.01,000.00,023.7,021.1,000.0,032.4,024.6,021.5,0000.0,0007.98,0003.13,0002.33
2024-05-17 00:04:00,SystemResetWarning,0822.7,4.99,000.00,023.7,021.6,000.0,032.2,024.9,021.3,0000.0,0007.50,0003.14,0002.34
2024-05-17 00:05:00,SystemResetWarning,0822.8,4.99,000.00,023.7,022.0,000.0,032.2,025.1,020.0,0000.0,0006.97,0003.06,0002.35
2024-05-17 00:06:00,SystemResetWarning,0822.7,5.01,000.00,023.8,022.4,000.0,032.1,025.4,020.6,0000.0,0006.31,0003.02,0002.35
2024-05-17 00:07:00,SystemResetWarning,0822.8,5.01,000.00,023.8,022.7,000.0,032.1,025.5,020.4,0000.0,0005.50,0002.97,0002.35
2024-05-17 00:08:00,SystemResetWarning,0822.8,5.00,000.00,023.9,023.0,000.0,032.1,025.7,019.5,0000.0,0005.52,0002.99,0002.35
2024-05-17 00:09:00,SystemResetWarning,0822.8,4.98,000.00,024.0,023.3,000.0,032.1,025.9,020.0,0000.0,0005.42,0002.99,0002.36
2024-05-17 00:10:00,SystemResetWarning,0822.7,5.00,000.00,024.1,023.5,000.0,032.1,026.0,020.3,0000.0,0006.69,0003.09,0002.37
2024-05-17 00:11:00,SystemResetWarning,0822.6,5.01,000.00,024.2,023.7,000.0,032.2,026.1,020.6,0000.0,0007.68,0003.13,0002.38
2024-05-17 00:12:00,SystemResetWarning,0823.0,5.00,000.00,024.3,023.9,000.0,032.2,026.3,020.0,0000.0,0007.71,0003.17,0002.39
2024-05-17 00:13:00,SystemResetWarning,0822.7,4.99,000.00,024.4,024.0,000.0,032.3,026.3,019.8,0000.0,0007.87,0003.20,0002.40
2024-05-17 00:14:00,SystemResetWarning,0823.0,4.97,000.00,024.4,023.2,000.0,032.4,025.8,020.4,0000.0,0007.82,0003.19,0002.41
2024-05-17 00:15:00,SystemResetWarning,0822.6,5.01,000.00,024.0,021.8,000.0,032.4,025.0,020.5,0000.0,0007.89,0003.19,0002.41
2024-05-17 00:16:00,SystemResetWarning,0822.7,5.01,000.00,023.9,022.0,000.0,032.4,025.1,020.1,0000.0,0008.18,0003.22,0002.43
2024-05-17 00:17:00,SystemResetWarning,0822.9,5.00,000.00,023.9,022.3,000.0,032.3,025.3,019.8,0000.0,0008.91,0003.28,0002.44
2024-05-17 00:18:00,SystemResetWarning,0822.7,4.99,000.00,024.0,022.7,000.0,032.3,025.6,020.5,0000.0,0009.05,0003.32,0002.46
2024-05-17 00:19:00,SystemResetWarning,0822.6,5.00,000.00,024.1,023.0,000.0,032.3,025.8,019.8,0000.0,0009.11,0003.36,0002.47
2024-05-17 00:20:00,SystemResetWarning,0822.9,5.00,000.00,024.2,023.3,000.0,032.3,026.0,020.2,0000.0,0009.74,0003.40,0002.49
2024-05-17 00:21:00,SystemResetWarning,0822.8,5.00,000.00,024.2,023.5,000.0,032.3,026.1,019.8,0000.0,0011.65,0003.44,0002.50
2024-05-17 00:22:00,SystemResetWarning,0822.9,5.00,000.00,024.3,023.7,000.0,032.3,026.2,019.8,0000.0,0012.83,0003.48,0002.51
2024-05-17 00:23:00,SystemResetWarning,0822.7,4.99,000.00,024.4,023.9,000.0,032.3,026.3,020.3,0000.0,0015.09,0003.47,0002.52
2024-05-17 00:24:00,SystemResetWarning,0822.6,4.99,000.00,024.4,023.4,000.0,032.4,026.0,020.0,0000.0,0015.62,0003.47,0002.53
2024-05-17 00:25:00,SystemResetWarning,0822.7,5.00,000.00,024.1,021.4,000.0,032.5,024.8,021.2,0000.0,0015.84,0003.48,0002.53
2024-05-17 00:26:00,SystemResetWarning,0822.9,5.02,000.00,023.7,020.9,000.0,032.5,024.5,022.1,0000.0,0016.12,0003.50,0002.53
2024-05-17 00:27:00,SystemResetWarning,0822.6,4.99,000.00,023.7,021.3,000.0,032.4,024.8,022.3,0000.0,0016.14,0003.52,0002.53
2024-05-17 00:28:00,SystemResetWarning,0822.6,4.99,000.00,023.7,021.8,000.0,032.2,025.0,021.2,0000.0,0015.62,0003.49,0002.53
2024-05-17 00:29:00,SystemResetWarning,0822.6,5.01,000.00,023.7,022.2,000.0,032.2,025.3,021.7,0000.0,0015.76,0003.45,0002.52
2024-05-17 00:30:00,SystemResetWarning,0822.8,5.01,000.00,023.8,022.5,000.0,032.1,025.5,020.0,0000.0,0015.89,0003.43,0002.52
2024-05-17 00:31:00,SystemResetWarning,0822.8,5.00,000.00,023.9,022.9,000.0,032.1,025.6,019.6,0000.0,0015.65,0003.40,0002.54
2024-05-17 00:32:00,SystemResetWarning,0822.7,5.00,000.00,024.0,023.2,000.0,032.1,025.8,020.0,0000.0,0013.78,0003.42,0002.58
2024-05-17 00:33:00,SystemResetWarning,0822.7,5.00,000.00,024.1,023.4,000.0,032.2,026.0,019.5,0000.0,0012.37,0003.42,0002.65
2024-05-17 00:34:00,SystemResetWarning,0822.8,5.00,000.00,024.2,023.6,000.0,032.2,026.1,019.5,0000.0,0010.36,0003.45,0002.72
2024-05-17 00:35:00,SystemResetWarning,0822.8,5.01,000.00,024.2,023.8,000.0,032.2,026.2,019.2,0000.0,0010.53,0003.53,0002.80
2024-05-17 00:36:00,SystemResetWarning,0822.8,5.00,000.00,024.3,024.0,000.0,032.3,026.3,019.2,0000.0,0010.67,0003.58,0002.84
2024-05-17 00:37:00,SystemResetWarning,0822.7,5.00,000.00,024.4,024.1,000.0,032.3,026.4,019.5,0000.0,0010.49,0003.62,0002.88
2024-05-17 00:38:00,SystemResetWarning,0822.7,4.99,000.00,024.4,023.3,000.0,032.4,025.9,019.3,0000.0,0011.07,0003.61,0002.95
2024-05-17 00:39:00,SystemResetWarning,0822.7,5.00,000.00,024.1,021.9,000.0,032.5,025.2,019.7,0000.0,0011.02,0003.63,0003.00
2024-05-17 00:40:00,SystemResetWarning,0822.8,5.01,000.00,024.0,022.1,000.0,032.5,025.2,020.2,0000.0,0011.26,0003.72,0003.10
2024-05-17 00:41:00,SystemResetWarning,0822.9,4.99,000.00,024.0,022.4,000.0,032.4,025.4,020.5,0000.0,0011.41,0003.81,0003.15
2024-05-17 00:42:00,SystemResetWarning,0823.3,5.00,000.00,024.1,022.7,000.0,032.3,025.6,020.6,0000.0,0011.41,0003.89,0003.19
2024-05-17 00:43:00,SystemResetWarning,0823.1,5.00,000.00,024.1,023.0,000.0,032.3,025.8,020.2,0000.0,0011.55,0003.95,0003.27
2024-05-17 00:44:00,SystemResetWarning,0822.9,5.01,000.00,024.2,023.3,000.0,032.3,026.0,020.6,0000.0,0011.43,0003.97,0003.30
2024-05-17 00:45:00,SystemResetWarning,0822.9,5.01,000.00,024.3,023.6,000.0,032.3,026.1,020.2,0000.0,0011.69,0003.99,0003.32
2024-05-17 00:46:00,SystemResetWarning,0823.1,5.00,000.00,024.4,023.8,000.0,032.3,026.3,020.2,0000.0,0011.57,0003.92,0003.33
2024-05-17 00:47:00,SystemResetWarning,0822.8,5.00,000.00,024.4,023.9,000.0,032.4,026.3,020.2,0000.0,0011.16,0003.90,0003.33
2024-05-17 00:48:00,SystemResetWarning,0823.2,4.98,000.00,024.3,022.3,000.0,032.5,025.4,020.7,0000.0,0012.46,0003.93,0003.35
2024-05-17 00:49:00,SystemResetWarning,0822.8,5.01,000.00,023.9,020.8,000.0,032.5,024.6,020.7,0000.0,0012.24,0003.99,0003.38
2024-05-17 00:50:00,SystemResetWarning,0822.9,5.01,000.00,023.7,021.1,000.0,032.5,024.6,020.5,0000.0,0012.30,0004.03,0003.40
2024-05-17 00:51:00,SystemResetWarning,0823.1,4.99,000.00,023.7,021.5,000.0,032.3,024.9,020.3,0000.0,0012.00,0003.98,0003.36
2024-05-17 00:52:00,SystemResetWarning,0823.2,5.00,000.00,023.7,021.9,000.0,032.2,025.1,020.5,0000.0,0013.51,0003.92,0003.32
2024-05-17 00:53:00,SystemResetWarning,0823.3,5.00,000.00,023.8,022.3,000.0,032.2,025.4,020.5,0000.0,0013.73,0003.83,0003.27
2024-05-17 00:54:00,SystemResetWarning,0823.2,5.01,000.00,023.9,022.7,000.0,032.1,025.5,021.0,0000.0,0013.92,0003.72,0003.18
2024-05-17 00:55:00,SystemResetWarning,0823.0,5.00,000.00,023.9,023.0,000.0,032.1,025.7,021.1,0000.0,0014.16,0003.68,0003.13
2024-05-17 00:56:00,SystemResetWarning,0823.0,5.00,000.00,024.0,023.3,000.0,032.2,025.9,021.6,0000.0,0014.89,0003.72,0003.08
2024-05-17 00:57:00,SystemResetWarning,0822.8,5.00,000.00,024.1,023.5,000.0,032.2,026.0,021.2,0000.0,0015.01,0003.77,0003.03
2024-05-17 00:58:00,SystemResetWarning,0822.9,5.00,000.00,024.2,023.7,000.0,032.2,026.1,020.8,0000.0,0015.12,0003.79,0002.99
2024-05-17 00:59:00,SystemResetWarning,0823.0,5.00,000.00,024.3,023.9,000.0,032.2,026.3,020.6,0000.0,0014.32,0003.73,0002.93
